Time,TemperatureF,DewpointF,PressureIn,WindDirection,WindDirectionDegrees,WindSpeedMPH,WindSpeedGustMPH,Humidity,HourlyPrecipIn,Conditions,Clouds,dailyrainin,SoftwareType,DateUTC
2013-01-08 07:52:00,39.0,37.0,30.14,SSE,154,0.0,0.0,93,0.00,,,0.00,,2013-01-08 15:52:00,
2013-01-08 08:02:00,39.0,37.0,30.15,SSE,154,0.0,0.0,94,0.00,,,0.00,,2013-01-08 16:02:00,
2013-01-08 08:12:00,39.0,37.0,30.15,SSE,154,0.0,0.0,94,0.00,,,0.00,,2013-01-08 16:12:00,
2013-01-08 08:22:00,40.0,38.0,30.15,SSE,154,0.0,1.0,94,0.00,,,0.00,,2013-01-08 16:22:00,
2013-01-08 08:32:00,40.0,38.0,30.17,SSE,154,0.0,0.0,94,0.00,,,0.00,,2013-01-08 16:32:00,
2013-01-08 08:42:00,40.0,38.0,30.17,SSE,154,0.0,0.0,94,0.00,,,0.00,,2013-01-08 16:42:00,
2013-01-08 08:52:00,40.0,38.0,30.16,SSE,154,0.0,0.0,93,0.00,,,0.00,,2013-01-08 16:52:00,
2013-01-08 09:02:00,41.0,39.0,30.18,SSE,154,0.0,0.0,94,0.00,,,0.00,,2013-01-08 17:02:00,
2013-01-08 09:12:00,41.0,39.0,30.18,SSE,154,0.0,0.0,94,0.00,,,0.00,,2013-01-08 17:12:00,
2013-01-08 09:22:00,41.0,39.0,30.17,SSE,154,0.0,0.0,94,0.00,,,0.00,,2013-01-08 17:22:00,
2013-01-08 09:33:00,41.0,39.0,30.18,SSE,154,0.0,0.0,94,0.00,,,0.00,,2013-01-08 17:33:00,
2013-01-08 09:42:00,41.0,39.0,30.18,SSE,154,0.0,0.0,94,0.00,,,0.00,,2013-01-08 17:42:00,
2013-01-08 09:53:00,42.0,40.0,30.18,SSE,154,0.0,0.0,94,0.00,,,0.00,,2013-01-08 17:53:00,
2013-01-08 10:02:00,42.0,40.0,30.19,SSE,154,0.0,0.0,94,0.00,,,0.00,,2013-01-08 18:02:00,
2013-01-08 10:12:00,42.0,40.0,30.19,SSE,154,0.0,0.0,94,0.00,,,0.00,,2013-01-08 18:12:00,
2013-01-08 10:22:00,42.0,40.0,30.18,SSE,154,0.0,1.0,94,0.00,,,0.00,,2013-01-08 18:22:00,
2013-01-08 10:32:00,44.0,42.0,30.18,SSE,154,0.0,0.0,94,0.00,,,0.00,,2013-01-08 18:32:00,
2013-01-08 10:42:00,44.0,42.0,30.18,SSE,154,0.0,0.0,94,0.00,,,0.00,,2013-01-08 18:42:00,
2013-01-08 10:52:00,45.0,43.0,30.19,SSE,154,0.0,0.0,94,0.00,,,0.00,,2013-01-08 18:52:00,
2013-01-08 11:02:00,46.0,45.0,30.17,SSE,154,0.0,3.0,95,0.00,,,0.00,,2013-01-08 19:02:00,
2013-01-08 11:11:00,46.0,45.0,30.17,SSE,154,0.0,3.0,95,0.00,,,0.00,,2013-01-08 19:11:00,
2013-01-08 11:22:00,48.0,46.0,30.16,SSE,154,0.0,0.0,94,0.00,,,0.00,,2013-01-08 19:22:00,
2013-01-08 11:32:00,50.0,49.0,30.15,WSW,239,0.0,2.0,95,0.00,,,0.00,,2013-01-08 19:32:00,
2013-01-08 11:42:00,50.0,49.0,30.15,WSW,239,0.0,2.0,95,0.00,,,0.00,,2013-01-08 19:42:00,
2013-01-08 11:52:00,50.0,49.0,30.15,WNW,291,0.0,3.0,95,0.00,,,0.00,,2013-01-08 19:52:00,
2013-01-08 12:02:00,51.0,50.0,30.13,WNW,290,0.0,1.0,95,0.00,,,0.00,,2013-01-08 20:02:00,
2013-01-08 12:11:00,51.0,50.0,30.13,WNW,290,0.0,1.0,95,0.00,,,0.00,,2013-01-08 20:11:00,
2013-01-08 12:22:00,52.0,50.0,30.13,NE,38,0.0,2.0,94,0.00,,,0.00,,2013-01-08 20:22:00,
2013-01-08 12:32:00,52.0,49.0,30.11,ENE,62,0.0,2.0,88,0.00,,,0.00,,2013-01-08 20:32:00,
2013-01-08 12:42:00,52.0,49.0,30.11,ENE,62,0.0,2.0,88,0.00,,,0.00,,2013-01-08 20:42:00,
2013-01-08 12:53:00,54.0,50.0,30.11,ENE,68,0.0,2.0,85,0.00,,,0.00,,2013-01-08 20:53:00,
2013-01-08 13:02:00,55.0,48.0,30.10,NE,46,0.0,3.0,76,0.00,,,0.00,,2013-01-08 21:02:00,
2013-01-08 13:12:00,55.0,48.0,30.10,NE,46,0.0,3.0,76,0.00,,,0.00,,2013-01-08 21:12:00,
2013-01-08 13:22:00,56.0,48.0,30.09,ENE,75,0.0,2.0,75,0.00,,,0.00,,2013-01-08 21:22:00,
2013-01-08 13:32:00,58.0,48.0,30.09,ENE,77,0.0,3.0,70,0.00,,,0.00,,2013-01-08 21:32:00,
2013-01-08 13:42:00,58.0,48.0,30.09,ENE,77,0.0,3.0,70,0.00,,,0.00,,2013-01-08 21:42:00,
2013-01-08 13:52:00,58.0,48.0,30.09,ENE,77,0.0,1.0,70,0.00,,,0.00,,2013-01-08 21:52:00,
2013-01-08 14:02:00,60.0,50.0,30.07,ENE,77,0.0,1.0,69,0.00,,,0.00,,2013-01-08 22:02:00,
2013-01-08 14:12:00,60.0,50.0,30.07,ENE,77,0.0,1.0,69,0.00,,,0.00,,2013-01-08 22:12:00,
2013-01-08 14:22:00,60.0,49.0,30.08,ENE,77,0.0,1.0,67,0.00,,,0.00,,2013-01-08 22:22:00,
2013-01-08 14:32:00,61.0,49.0,30.07,SSW,206,0.0,3.0,65,0.00,,,0.00,,2013-01-08 22:32:00,
2013-01-08 14:42:00,61.0,49.0,30.07,SSW,206,0.0,3.0,65,0.00,,,0.00,,2013-01-08 22:42:00,
2013-01-08 14:52:00,61.0,50.0,30.07,SSE,166,0.0,3.0,66,0.00,,,0.00,,2013-01-08 22:52:00,
2013-01-08 15:02:00,61.0,50.0,30.07,ESE,105,0.0,5.0,66,0.00,,,0.00,,2013-01-08 23:02:00,
2013-01-08 15:12:00,61.0,50.0,30.07,ESE,105,0.0,5.0,66,0.00,,,0.00,,2013-01-08 23:12:00,
2013-01-08 15:22:00,61.0,50.0,30.07,SE,125,0.0,3.0,67,0.00,,,0.00,,2013-01-08 23:22:00,
2013-01-08 15:32:00,61.0,50.0,30.06,SSE,161,0.0,0.0,68,0.00,,,0.00,,2013-01-08 23:32:00,
2013-01-08 15:42:00,61.0,50.0,30.06,SSE,161,0.0,0.0,68,0.00,,,0.00,,2013-01-08 23:42:00,
2013-01-08 15:52:00,61.0,50.0,30.07,SSE,157,0.0,3.0,68,0.00,,,0.00,,2013-01-08 23:52:00,
2013-01-08 16:02:00,61.0,51.0,30.07,SSE,158,0.0,3.0,69,0.00,,,0.00,,2013-01-09 00:02:00,
2013-01-08 16:12:00,61.0,51.0,30.07,SSE,158,0.0,3.0,69,0.00,,,0.00,,2013-01-09 00:12:00,
2013-01-08 16:22:00,60.0,50.0,30.06,SSE,158,0.0,2.0,70,0.00,,,0.00,,2013-01-09 00:22:00,
2013-01-08 16:32:00,60.0,51.0,30.05,SSE,167,0.0,0.0,71,0.00,,,0.00,,2013-01-09 00:32:00,
2013-01-08 16:42:00,60.0,51.0,30.05,SSE,167,0.0,0.0,71,0.00,,,0.00,,2013-01-09 00:42:00,
2013-01-08 16:52:00,59.0,50.0,30.06,South,175,0.0,0.0,71,0.00,,,0.00,,2013-01-09 00:52:00,
2013-01-08 17:02:00,58.0,50.0,30.06,South,175,0.0,0.0,74,0.00,,,0.00,,2013-01-09 01:02:00,
2013-01-08 17:11:00,58.0,50.0,30.06,South,175,0.0,0.0,74,0.00,,,0.00,,2013-01-09 01:11:00,
2013-01-08 17:22:00,58.0,50.0,30.06,South,175,0.0,0.0,74,0.00,,,0.00,,2013-01-09 01:22:00,
2013-01-08 17:52:00,55.0,49.0,30.06,South,175,0.0,0.0,79,0.00,,,0.00,,2013-01-09 01:52:00,
2013-01-08 18:02:00,54.0,48.0,30.06,South,175,0.0,0.0,80,0.00,,,0.00,,2013-01-09 02:02:00,
2013-01-08 18:11:00,54.0,48.0,30.06,South,175,0.0,0.0,80,0.00,,,0.00,,2013-01-09 02:11:00,
2013-01-08 18:22:00,54.0,48.0,30.07,SE,132,0.0,0.0,79,0.00,,,0.00,,2013-01-09 02:22:00,
2013-01-08 18:32:00,54.0,48.0,30.06,SE,132,0.0,0.0,79,0.00,,,0.00,,2013-01-09 02:32:00,
2013-01-08 18:42:00,54.0,48.0,30.06,SE,132,0.0,0.0,79,0.00,,,0.00,,2013-01-09 02:42:00,
2013-01-08 18:52:00,54.0,48.0,30.07,SE,132,0.0,0.0,79,0.00,,,0.00,,2013-01-09 02:52:00,